Change the Weather History Date:

Friday, June 21, 2013

  Actual Average Record
Temperature  
Mean Temperature 78 °F 79 °F  
Max Temperature 83 °F 84 °F 88 °F (1981)
Min Temperature 73 °F 73 °F 65 °F (1978)
Degree Days  
Heating Degree Days 0 0  
Month to date heating degree days 0 0  
Since 1 June heating degree days 0 0  
Since 1 July heating degree days 0 0  
Cooling Degree Days 13 13  
Month to date cooling degree days 283 269  
Year to date cooling degree days 1365 1508  
Since 1 June cooling degree days 283 269  
Growing Degree Days 28 (Base 50)    
Moisture  
Dew Point 69 °F    
Average Humidity 75    
Maximum Humidity 87    
Minimum Humidity 63    
Precipitation  
Precipitation 0.01 in 0.05 in 0.80 in (1978)
Month to date precipitation 0.17 1.10  
Year to date precipitation 14.97 16.94  
Snow  
Snow 0.00 in - - ()
Month to date snowfall 0.0  
Since 1 June snowfall 0.0  
Since 1 July snowfall 0.0  
Snow Depth 0.00 in    
Sea Level Pressure  
Sea Level Pressure 30.07 in    
Wind  
Wind Speed 13 mph (ENE)    
Max Wind Speed 18 mph    
Max Gust Speed 24 mph    
Visibility 10 miles    
Events Rain    
T = Trace of Precipitation, MM = Missing Value Source: NWS Daily Summary

Daily Weather History Graph

Daily Weather History Graph

Search for Another Location

Airport or City:

Trip Planner

Search our weather history database for the weather conditions in past years. The results will help you decide how hot, cold, wet, or windy it might be!

Date:

Astronomy

Jun. 21, 2013 Rise Set
Actual Time 5:54 AM HST 7:23 PM HST
Civil Twilight 5:29 AM HST 7:48 PM HST
Nautical Twilight 5:00 AM HST 8:18 PM HST
Astronomical Twilight 4:28 AM HST 8:49 PM HST
Moon 5:54 PM HST (6/21) 4:12 AM HST (6/21)
Length of Visible Light 14h 18m
Length of Day
13h 28m
Waxing Gibbous, 96% of the Moon is Illuminated
Jun 21
Waxing Gibbous
Jun 23
Full
Jun 29
Last Quarter
Jul 7
New
Jul 15
First Quarter

Hourly Weather History & Observations

Time (HST) Temp. Heat Index Dew Point Humidity Pressure Visibility Wind Dir Wind Speed Gust Speed Precip Events Conditions
12:53 AM 75.0 °F - 68.0 °F 79% 30.08 in 10.0 mi ENE 11.5 mph - N/A   Overcast
1:53 AM 75.0 °F - 69.1 °F 82% 30.06 in 10.0 mi ENE 12.7 mph - N/A   Overcast
2:01 AM 75.2 °F - 69.8 °F 83% 30.07 in 10.0 mi ENE 13.8 mph - N/A   Overcast
2:27 AM 75.2 °F - 68.0 °F 78% 30.07 in 10.0 mi ENE 16.1 mph - N/A   Overcast
2:36 AM 75.2 °F - 68.0 °F 78% 30.07 in 8.0 mi ENE 16.1 mph - N/A   Overcast
2:45 AM 73.4 °F - 69.8 °F 88% 30.07 in 7.0 mi ENE 11.5 mph - 0.01 in Rain Light Rain
2:53 AM 73.9 °F - 69.1 °F 85% 30.06 in 10.0 mi NE 10.4 mph - 0.01 in   Overcast
3:53 AM 73.9 °F - 68.0 °F 82% 30.05 in 10.0 mi ENE 15.0 mph - N/A   Scattered Clouds
4:53 AM 73.9 °F - 68.0 °F 82% 30.05 in 10.0 mi ENE 12.7 mph - N/A   Partly Cloudy
5:53 AM 73.9 °F - 68.0 °F 82% 30.05 in 10.0 mi NE 8.1 mph - N/A   Scattered Clouds
6:50 AM 75.2 °F - 69.8 °F 83% 30.07 in 10.0 mi ENE 12.7 mph - N/A   Mostly Cloudy
6:53 AM 75.0 °F - 69.1 °F 82% 30.07 in 10.0 mi ENE 16.1 mph 24.2 mph N/A   Mostly Cloudy
7:03 AM 73.4 °F - 69.8 °F 88% 30.07 in 10.0 mi East 10.4 mph - 0.00 in Rain Light Rain
7:53 AM 77.0 °F - 70.0 °F 79% 30.08 in 10.0 mi ENE 12.7 mph - 0.00 in   Overcast
8:53 AM 79.0 °F - 69.1 °F 72% 30.09 in 10.0 mi ENE 12.7 mph - N/A   Overcast
9:53 AM 81.0 °F 83.8 °F 68.0 °F 65% 30.10 in 10.0 mi NE 12.7 mph - N/A   Overcast
10:53 AM 82.0 °F 84.9 °F 68.0 °F 62% 30.10 in 10.0 mi NE 12.7 mph - N/A   Scattered Clouds
11:53 AM 82.0 °F 84.9 °F 68.0 °F 62% 30.09 in 10.0 mi NE 13.8 mph - N/A   Scattered Clouds
12:53 PM 82.0 °F 85.5 °F 69.1 °F 65% 30.07 in 10.0 mi NE 16.1 mph 23.0 mph 0.00 in   Scattered Clouds
1:34 PM 80.6 °F 83.9 °F 69.8 °F 70% 30.07 in 10.0 mi NE 15.0 mph - N/A   Mostly Cloudy
1:50 PM 82.4 °F 86.3 °F 69.8 °F 66% 30.06 in 10.0 mi NE 15.0 mph - N/A   Scattered Clouds
1:53 PM 82.9 °F 86.5 °F 69.1 °F 63% 30.06 in 10.0 mi NE 15.0 mph - N/A   Scattered Clouds
2:53 PM 82.0 °F 85.5 °F 69.1 °F 65% 30.04 in 10.0 mi NE 15.0 mph - N/A   Partly Cloudy
3:53 PM 82.0 °F 85.5 °F 69.1 °F 65% 30.04 in 10.0 mi NE 17.3 mph - N/A   Partly Cloudy
4:53 PM 79.0 °F - 68.0 °F 69% 30.03 in 10.0 mi NE 17.3 mph - N/A   Partly Cloudy
5:22 PM 78.8 °F - 69.8 °F 74% 30.03 in 10.0 mi ENE 17.3 mph - N/A   Mostly Cloudy
5:41 PM 78.8 °F - 69.8 °F 74% 30.03 in 10.0 mi NE 17.3 mph - 0.00 in   Overcast
5:53 PM 77.0 °F - 68.0 °F 74% 30.03 in 10.0 mi NE 18.4 mph - 0.00 in   Mostly Cloudy
6:53 PM 77.0 °F - 68.0 °F 74% 30.04 in 10.0 mi NE 16.1 mph - N/A   Mostly Cloudy
7:53 PM 75.9 °F - 68.0 °F 76% 30.06 in 10.0 mi NE 16.1 mph - N/A   Mostly Cloudy
8:53 PM 75.9 °F - 68.0 °F 76% 30.08 in 10.0 mi ENE 17.3 mph - N/A   Overcast
9:53 PM 73.9 °F - 70.0 °F 87% 30.09 in 8.0 mi NE 17.3 mph 24.2 mph 0.00 in Rain Light Rain
10:53 PM 73.9 °F - 70.0 °F 87% 30.09 in 10.0 mi ENE 18.4 mph - 0.00 in   Overcast
11:29 PM 73.4 °F - 69.8 °F 88% 30.10 in 7.0 mi ENE 13.8 mph 21.9 mph 0.01 in Rain Light Rain
11:38 PM 73.4 °F - 69.8 °F 88% 30.10 in 10.0 mi ENE 18.4 mph - 0.01 in   Overcast
11:50 PM 73.4 °F - 69.8 °F 88% 30.10 in 9.0 mi ENE 23.0 mph 28.8 mph 0.01 in Rain Light Rain
11:53 PM 73.0 °F - 69.1 °F 87% 30.09 in 10.0 mi ENE 24.2 mph 28.8 mph 0.01 in Rain Light Rain